User: anonymous   Login
Location: Unspecified
(0.0000°N, 0.0000°E)
Time: 19:42:43
(UTC+00:00)
Language:

COSMOS 2490 - Orbit

View from above orbital plane
View from above orbital plane
View from above satellite
View from above satellite

Ground track
Ground track

The orbit data is extracted from the following two-line orbital elements,

1 39485U 13076C   21025.74559681  .00000052  00000-0  30225-3 0  9993
2 39485  82.4849 315.1362 0022326  78.0986 282.2601 12.42880296321560
Epoch (UTC): 25 January 2021 17:53:39
Eccentricity: 0.0022326
inclination: 82.4849°
perigee height: 1477 km
apogee height: 1512 km
right ascension of ascending node: 315.1362°
argument of perigee: 78.0986°
revolutions per day: 12.42880296
mean anomaly at epoch: 282.2601°
orbit number at epoch: 32156

The dashed part of the orbit path shows where the satellite is in the earth's shadow,  

DLR